Ottumwa Industrial Airport
Sunday 2:53 PM
Temperature74° (74°/52°)
Dew Point50°
Relative Humidity43
%
Visibility10
mi
Pressure1024.4
mb
Wind DirectionSE
140°
Wind Speed6
mph
Precipitation Today0.00"

Last 30 Observations

Time PresWx Temp DP Feels RH% Vsby Pressure Ceiling Direction Speed 1h Precip
2:53 PM 74° 50° 43
%
10
mi
1024.4
mb
SE
140°
6
mph
0.00"
1:53 PM 74° 51° 45
%
10
mi
1025.1
mb
S
170°
7
mph
0.00"
12:53 PM 73° 52° 48
%
10
mi
1025.7
mb
ESE
120°
8
mph
0.00"
11:53 AM 72° 50° 46
%
10
mi
1026.4
mb
S
170°
11
mph
0.00"
10:53 AM 70° 50° 49
%
10
mi
1026.4
mb
9,000
ft
SSE
150°
9
mph
0.00"
9:53 AM 68° 50° 53
%
10
mi
1027.1
mb
SE
140°
7
mph
0.00"
8:53 AM 63° 49° 60
%
10
mi
1026.8
mb
12,000
ft
SE
130°
8
mph
0.00"
7:53 AM 58° 49° 72
%
10
mi
1026.8
mb
11,000
ft
ESE
110°
3
mph
0.00"
6:53 AM 57° 49° 74
%
10
mi
1025.4
mb
E
90°
5
mph
0.00"
5:53 AM 53° 47° 80
%
10
mi
1025.1
mb
E
80°
5
mph
0.00"
4:53 AM 53° 49° 86
%
10
mi
1024.7
mb
Calm 0.00"
3:53 AM 53° 49° 86
%
10
mi
1024.7
mb
11,000
ft
Calm 0.00"
2:53 AM 58° 49° 72
%
10
mi
1025.1
mb
11,000
ft
Calm 0.00"
1:53 AM 59° 49° 69
%
10
mi
1024.4
mb
11,000
ft
Calm 0.00"
12:53 AM 57° 49° 74
%
10
mi
1024.1
mb
SE
140°
3
mph
0.00"
11:53 PM 59° 48° 67
%
10
mi
1024.1
mb
E
100°
3
mph
0.00"
10:53 PM 63° 47° 56
%
10
mi
1023.7
mb
E
90°
5
mph
0.00"
9:53 PM 63° 48° 58
%
10
mi
1023.7
mb
ENE
60°
6
mph
0.00"
8:53 PM 65° 49° 56
%
10
mi
1023.0
mb
NE
50°
6
mph
0.00"
7:53 PM 69° 47° 45
%
10
mi
1022.7
mb
NE
40°
8
mph
0.00"
6:53 PM 72° 47° 41
%
10
mi
1022.7
mb
N
10°
9
mph
0.00"
5:53 PM 71° 49° 45
%
10
mi
1022.7
mb
N
350°
8
mph
0.00"
4:53 PM 74° 51° 45
%
10
mi
1023.0
mb
N
350°
13
mph
0.00"
3:53 PM 73° 50° 44
%
10
mi
1023.4
mb
NNW
330°
10
mph
0.00"
2:53 PM 73° 50° 44
%
10
mi
1023.4
mb
0.00"
1:53 PM 73° 53° 50
%
10
mi
1023.7
mb
NNW
340°
10
mph
0.00"
12:53 PM 70° 51° 51
%
10
mi
1024.4
mb
NE
50°
6
mph
0.00"
11:53 AM 70° 51° 51
%
10
mi
1024.7
mb
NNE
30°
7
mph
0.00"
10:53 AM 68° 51° 55
%
10
mi
1024.7
mb
N
350°
9
mph
0.00"
9:53 AM 65° 50° 58
%
10
mi
1025.1
mb
Variable 5
mph
0.00"